This is the latest recevied weather packets stored in our database for station/object W1REE. If no packets are shown the sender has not sent any weather packets the latest 10 day(s).
| Time | Temp. | Humidity | Pressure | Rain* | Wind** | Luminosity | Snow |
|---|---|---|---|---|---|---|---|
| 1777999897 | 3.89° C | 93% | 1015.6 hPa | 1.78 mm | - | 78 W/m² | - |
| 1777999592 | 3.89° C | 93% | 1015.6 hPa | 1.78 mm | - | 65 W/m² | - |
| 1777999290 | 3.89° C | 93% | 1015.7 hPa | 0 mm | - | 57 W/m² | - |
| 1777998989 | 3.89° C | 92% | 1015.7 hPa | 1.27 mm | - | 45 W/m² | - |
| 1777998686 | 3.89° C | 92% | 1015.6 hPa | 1.27 mm | - | 44 W/m² | - |
| 1777998383 | 3.89° C | 91% | 1015.4 hPa | 0 mm | - | 40 W/m² | - |
| 1777998081 | 3.89° C | 90% | 1015.6 hPa | 0 mm | - | 43 W/m² | - |
| 1777997778 | 4.44° C | 90% | 1015.6 hPa | 0 mm | - | 48 W/m² | - |
| 1777997475 | 4.44° C | 89% | 1015.7 hPa | 0 mm | - | 52 W/m² | - |
| 1777997173 | 4.44° C | 89% | 1015.6 hPa | 1.78 mm | - | 48 W/m² | - |
| 1777996870 | 4.44° C | 89% | 1015.6 hPa | 1.78 mm | - | 38 W/m² | - |
| 1777996566 | 4.44° C | 88% | 1015.8 hPa | 0 mm | - | 36 W/m² | - |
| 1777996262 | 4.44° C | 89% | 1015.6 hPa | 0 mm | - | 37 W/m² | - |
| 1777995958 | 4.44° C | 90% | 1015.6 hPa | 0 mm | - | 34 W/m² | - |
| 1777995655 | 4.44° C | 89% | 1015.6 hPa | 0 mm | - | 32 W/m² | - |
| 1777995352 | 4.44° C | 88% | 1015.6 hPa | 0 mm | - | 32 W/m² | - |
| 1777995049 | 4.44° C | 88% | 1015.7 hPa | 0 mm | - | 31 W/m² | - |
| 1777994746 | 4.44° C | 88% | 1015.4 hPa | 0 mm | - | 33 W/m² | - |
| 1777994442 | 4.44° C | 87% | 1015.6 hPa | 0 mm | - | 34 W/m² | - |
| 1777994137 | 4.44° C | 86% | 1015.6 hPa | 0 mm | - | 32 W/m² | - |
| 1777993835 | 5° C | 85% | 1015.4 hPa | 0 mm | - | 26 W/m² | - |
| 1777993531 | 5° C | 84% | 1015.4 hPa | 0 mm | - | 28 W/m² | - |
| 1777993227 | 5° C | 85% | 1015.6 hPa | 0 mm | - | 39 W/m² | - |
| 1777992923 | 5° C | 83% | 1015.6 hPa | 0 mm | - | 26 W/m² | - |
| 1777992622 | 5° C | 82% | 1015.7 hPa | 0 mm | - | 24 W/m² | - |
* Rain latest hour (hover to see other rain measurements)
** Current wind speed in m/s (hover to see current wind gust speed)